User: anonymous   Login
Location: Granada
(37.1830°N, 3.6000°W)
Time: 06:32:29
(UTC+02:00)
Language:

Iridium 70 - Orbit

View from above orbital plane
View from above orbital plane
View from above satellite
View from above satellite

Ground track
Ground track

The orbit data is extracted from the following two-line orbital elements,

1 25342U 98032A   16207.49314449  .00000023  00000-0  11066-5 0  9996
2 25342  86.3972   0.8053 0002205  87.1955 333.2852 14.34212774952279
Epoch (UTC): 25 July 2016 11:50:07
Eccentricity: 0.0002205
inclination: 86.3972°
perigee height: 776 km
apogee height: 779 km
right ascension of ascending node: 0.8053°
argument of perigee: 87.1955°
revolutions per day: 14.34212774
mean anomaly at epoch: 333.2852°
orbit number at epoch: 95227

The dashed part of the orbit path shows where the satellite is in the earth's shadow,  

DLR